Location: *
(33.6842°N, 117.7925°W)
Time: 01:02:25
(UTC+00:00)

SL-8 Rocket - Pass Details

Date: 21 October 2019
Orbit: 957 x 990 km, 82.9° (Epoch: 18 November)

Event Time Altitude Azimuth Distance (km) Brightness Sun altitude
Rises 12:54:55 0° 183° (S) 3,649 7.0 -14.4°
Reaches altitude 10° 12:57:25 10° 183° (S) 2,701 6.3 -13.9°
Maximum altitude 13:03:36 87° 94° (E) 970 4.0 -12.6°
Drops below altitude 10° 13:09:47 10° 7° (N) 2,698 6.3 -11.3°
Sets 13:12:17 0° 7° (N) 3,645 7.0 -10.8°
